| time (UTC) | temp C | wind direction | speed KPH | gust KPH | rain 1hr cm | rain 24hr cm | rain mn cm | humidity % | barometer mb |
| 20260903162004 | 22 | 262 | 3.2 | 9.7 | 0.00 | 0.00 | 0.00 | 71 | 1022.5 |
| 20260903161003 | 22 | 30 | 1.6 | 4.8 | 0.00 | 0.00 | 0.00 | 66 | 1022.4 |
| 20260903160003 | 22 | 90 | 1.6 | 8.0 | 0.00 | 0.00 | 0.00 | 67 | 1022.4 |
| 20260903155003 | 22 | 114 | 3.2 | 9.7 | 0.00 | 0.00 | 0.00 | 69 | 1022.5 |
| 20260903154003 | 20 | 52 | 1.6 | 9.7 | 0.00 | 0.00 | 0.00 | 73 | 1022.6 |
| 20260903153003 | 20 | 141 | 0.0 | 9.7 | 0.00 | 0.00 | 0.00 | 76 | 1022.5 |
| 20260903151004 | 20 | 61 | 1.6 | 8.0 | 0.00 | 0.00 | 0.00 | 77 | 1022.6 |
| 20260903150004 | 21 | 65 | 4.8 | 8.0 | 0.00 | 0.00 | 0.00 | 78 | 1022.3 |
| 20260903145004 | 21 | 67 | 3.2 | 9.7 | 0.00 | 0.00 | 0.00 | 78 | 1022.4 |
| 20260903144004 | 21 | 69 | 3.2 | 9.7 | 0.00 | 0.00 | 0.00 | 78 | 1022.3 |
| 20260903142008 | 18 | 328 | 1.6 | 4.8 | 0.00 | 0.00 | 0.00 | 85 | 1022.4 |
| 20260903141005 | 19 | 20 | 1.6 | 4.8 | 0.00 | 0.00 | 0.00 | 86 | 1022.1 |
| 20260903140004 | 19 | 298 | 0.0 | 3.2 | 0.00 | 0.00 | 0.00 | 85 | 1022.1 |
| 20260903134003 | 18 | 80 | 1.6 | 4.8 | 0.00 | 0.00 | 0.00 | 86 | 1022.1 |
| 20260903132005 | 18 | 105 | 1.6 | 3.2 | 0.00 | 0.00 | 0.00 | 89 | 1022.0 |
| 20260903130003 | 18 | 43 | 1.6 | 3.2 | 0.00 | 0.00 | 0.00 | 90 | 1021.8 |
| 20260903125003 | 18 | 73 | 1.6 | 4.8 | 0.00 | 0.00 | 0.00 | 90 | 1021.7 |
| 20260903124004 | 18 | 56 | 3.2 | 8.0 | 0.00 | 0.00 | 0.00 | 88 | 1021.8 |
| 20260903123004 | 18 | 358 | 3.2 | 4.8 | 0.00 | 0.00 | 0.00 | 88 | 1021.5 |
| 20260903122004 | 19 | 3 | 1.6 | 3.2 | 0.00 | 0.00 | 0.00 | 88 | 1021.5 |
| 20260903121004 | 19 | 51 | 0.0 | 3.2 | 0.00 | 0.00 | 0.00 | 86 | 1021.4 |
| 20260903120004 | 19 | 82 | 1.6 | 3.2 | 0.00 | 0.00 | 0.00 | 85 | 1021.4 |
| 20260903115003 | 19 | 67 | 1.6 | 4.8 | 0.00 | 0.00 | 0.00 | 84 | 1021.3 |
| 20260903114003 | 19 | 94 | 3.2 | 4.8 | 0.00 | 0.00 | 0.00 | 85 | 1021.5 |
| 20260903113004 | 19 | 101 | 1.6 | 4.8 | 0.00 | 0.00 | 0.00 | 85 | 1021.5 |
| 20260903112004 | 19 | 128 | 3.2 | 4.8 | 0.00 | 0.00 | 0.00 | 85 | 1021.5 |
| 20260903111003 | 19 | 88 | 1.6 | 8.0 | 0.00 | 0.00 | 0.00 | 85 | 1021.5 |
| 20260903110004 | 19 | 71 | 4.8 | 8.0 | 0.00 | 0.00 | 0.00 | 85 | 1021.3 |
| 20260903105003 | 19 | 70 | 4.8 | 8.0 | 0.00 | 0.00 | 0.00 | 85 | 1021.4 |
| 20260903104005 | 19 | 106 | 1.6 | 4.8 | 0.00 | 0.00 | 0.00 | 86 | 1021.4 |
| 20260903103003 | 19 | 106 | 3.2 | 4.8 | 0.00 | 0.00 | 0.00 | 87 | 1021.6 |
| 20260903102004 | 19 | 114 | 1.6 | 3.2 | 0.00 | 0.00 | 0.00 | 88 | 1021.5 |
| 20260903101003 | 19 | 71 | 0.0 | 8.0 | 0.00 | 0.00 | 0.00 | 88 | 1021.6 |
| 20260903095004 | 19 | 342 | 0.0 | 3.2 | 0.00 | 0.00 | 0.00 | 90 | 1021.6 |
| 20260903094005 | 19 | 9 | 1.6 | 4.8 | 0.00 | 0.00 | 0.00 | 89 | 1021.8 |
| 20260903093004 | 19 | 52 | 3.2 | 3.2 | 0.00 | 0.00 | 0.00 | 87 | 1021.7 |
| 20260903092004 | 19 | 35 | 1.6 | 4.8 | 0.00 | 0.00 | 0.00 | 87 | 1021.5 |
| 20260903091003 | 19 | 13 | 1.6 | 4.8 | 0.00 | 0.00 | 0.00 | 87 | 1021.7 |
| 20260903090005 | 19 | 37 | 1.6 | 4.8 | 0.00 | 0.00 | 0.00 | 87 | 1021.6 |
| 20260903085004 | 19 | 77 | 3.2 | 8.0 | 0.00 | 0.00 | 0.00 | 87 | 1021.7 |
| 20260903084004 | 19 | 84 | 3.2 | 8.0 | 0.00 | 0.00 | 0.00 | 87 | 1021.7 |
| 20260903082004 | 20 | 82 | 1.6 | 8.0 | 0.00 | 0.00 | 0.00 | 86 | 1021.9 |
| 20260903081004 | 20 | 103 | 3.2 | 8.0 | 0.00 | 0.00 | 0.00 | 87 | 1022.0 |
| 20260903080004 | 20 | 89 | 4.8 | 8.0 | 0.00 | 0.00 | 0.00 | 86 | 1022.0 |
| 20260903075004 | 20 | 61 | 3.2 | 8.0 | 0.00 | 0.00 | 0.00 | 86 | 1022.2 |
| 20260903072004 | 20 | 73 | 1.6 | 9.7 | 0.00 | 0.00 | 0.00 | 84 | 1022.2 |
| 20260903071005 | 20 | 106 | 3.2 | 8.0 | 0.00 | 0.00 | 0.00 | 84 | 1022.2 |
| 20260903070003 | 20 | 101 | 3.2 | 9.7 | 0.00 | 0.00 | 0.00 | 83 | 1022.4 |
| 20260903065004 | 20 | 45 | 4.8 | 9.7 | 0.00 | 0.00 | 0.00 | 84 | 1022.4 |
| 20260903064004 | 20 | 93 | 1.6 | 8.0 | 0.00 | 0.00 | 0.00 | 84 | 1022.4 |
| 20260903062004 | 20 | 135 | 3.2 | 9.7 | 0.00 | 0.00 | 0.00 | 84 | 1022.7 |
| 20260903061004 | 20 | 101 | 3.2 | 8.0 | 0.00 | 0.00 | 0.00 | 84 | 1022.5 |
| 20260903060004 | 20 | 67 | 1.6 | 8.0 | 0.00 | 0.00 | 0.00 | 84 | 1022.5 |
| 20260903054004 | 20 | 113 | 1.6 | 8.0 | 0.00 | 0.00 | 0.00 | 84 | 1022.4 |
| 20260903053004 | 20 | 129 | 3.2 | 8.0 | 0.00 | 0.00 | 0.00 | 85 | 1022.5 |
| 20260903051004 | 20 | 86 | 4.8 | 12.9 | 0.00 | 0.00 | 0.00 | 85 | 1022.4 |
| 20260903050004 | 20 | 90 | 1.6 | 8.0 | 0.00 | 0.00 | 0.00 | 84 | 1022.6 |
| 20260903045005 | 20 | 93 | 3.2 | 4.8 | 0.00 | 0.00 | 0.00 | 84 | 1022.6 |
| 20260903044005 | 21 | 78 | 0.0 | 4.8 | 0.00 | 0.00 | 0.00 | 84 | 1022.6 |
| 20260903042004 | 21 | 85 | 3.2 | 9.7 | 0.00 | 0.00 | 0.00 | 84 | 1022.6 |
| 20260903041004 | 21 | 346 | 4.8 | 11.3 | 0.00 | 0.00 | 0.00 | 84 | 1022.6 |
| 20260903040004 | 21 | 99 | 0.0 | 4.8 | 0.00 | 0.00 | 0.00 | 82 | 1022.5 |
| 20260903035004 | 21 | 72 | 3.2 | 4.8 | 0.00 | 0.00 | 0.00 | 83 | 1022.4 |
| 20260903034005 | 21 | 108 | 1.6 | 3.2 | 0.00 | 0.00 | 0.00 | 83 | 1022.2 |
| 20260903033004 | 21 | 114 | 1.6 | 4.8 | 0.00 | 0.00 | 0.00 | 82 | 1022.3 |
| 20260903030005 | 21 | 138 | 1.6 | 4.8 | 0.00 | 0.00 | 0.00 | 81 | 1021.9 |
| 20260903024004 | 21 | 90 | 0.0 | 3.2 | 0.00 | 0.00 | 0.00 | 80 | 1021.9 |
| 20260903023004 | 21 | 101 | 0.0 | 4.8 | 0.00 | 0.00 | 0.00 | 80 | 1021.9 |
| 20260903022004 | 21 | 103 | 0.0 | 4.8 | 0.00 | 0.00 | 0.00 | 80 | 1021.7 |
| 20260903021006 | 21 | 84 | 0.0 | 8.0 | 0.00 | 0.00 | 0.00 | 80 | 1021.7 |
| 20260903020004 | 21 | 120 | 8.0 | 9.7 | 0.00 | 0.00 | 0.00 | 79 | 1021.5 |
| 20260903015004 | 22 | 174 | 1.6 | 8.0 | 0.00 | 0.00 | 0.00 | 78 | 1021.5 |
| 20260903014004 | 22 | 127 | 3.2 | 8.0 | 0.00 | 0.00 | 0.00 | 78 | 1021.3 |
| 20260903013004 | 22 | 91 | 1.6 | 4.8 | 0.00 | 0.00 | 0.00 | 77 | 1021.3 |
| 20260903012004 | 22 | 125 | 0.0 | 4.8 | 0.00 | 0.00 | 0.00 | 77 | 1021.2 |
| 20260903011005 | 22 | 252 | 3.2 | 8.0 | 0.00 | 0.00 | 0.00 | 76 | 1021.1 |
| 20260903010006 | 22 | 130 | 1.6 | 11.3 | 0.00 | 0.00 | 0.00 | 76 | 1020.9 |
| 20260903005004 | 22 | 123 | 3.2 | 11.3 | 0.00 | 0.00 | 0.00 | 76 | 1021.1 |
| 20260903003004 | 22 | 233 | 3.2 | 11.3 | 0.00 | 0.00 | 0.00 | 75 | 1021.0 |
| 20260903002004 | 22 | 135 | 4.8 | 11.3 | 0.00 | 0.00 | 0.00 | 74 | 1021.1 |
| 20260903001006 | 23 | 104 | 4.8 | 12.9 | 0.00 | 0.00 | 0.00 | 74 | 1021.0 |
| 20260903000005 | 23 | 126 | 4.8 | 9.7 | 0.00 | 0.00 | 0.00 | 74 | 1020.9 |
| 20260902235004 | 23 | 180 | 3.2 | 19.3 | 0.00 | 0.00 | 0.00 | 74 | 1020.9 |
| 20260902234004 | 23 | 157 | 9.7 | 19.3 | 0.00 | 0.00 | 0.00 | 74 | 1021.0 |
| 20260902233004 | 23 | 128 | 8.0 | 14.5 | 0.00 | 0.00 | 0.00 | 72 | 1020.9 |
| 20260902232004 | 23 | 183 | 3.2 | 19.3 | 0.00 | 0.00 | 0.00 | 72 | 1021.0 |
| 20260902230004 | 23 | 163 | 4.8 | 22.5 | 0.00 | 0.00 | 0.00 | 68 | 1020.9 |
| 20260902224004 | 24 | 163 | 4.8 | 20.9 | 0.00 | 0.00 | 0.00 | 67 | 1020.8 |
| 20260902223004 | 24 | 162 | 4.8 | 14.5 | 0.00 | 0.00 | 0.00 | 66 | 1020.7 |
| 20260902222004 | 25 | 155 | 8.0 | 20.9 | 0.00 | 0.00 | 0.00 | 66 | 1020.5 |
| 20260902221004 | 24 | 208 | 11.3 | 20.9 | 0.00 | 0.00 | 0.00 | 65 | 1020.7 |
| 20260902220004 | 24 | 121 | 8.0 | 22.5 | 0.00 | 0.00 | 0.00 | 66 | 1020.9 |
| 20260902215004 | 23 | 181 | 11.3 | 24.1 | 0.00 | 0.00 | 0.00 | 69 | 1020.9 |
| 20260902213004 | 24 | 228 | 9.7 | 25.7 | 0.00 | 0.00 | 0.00 | 67 | 1020.9 |
| 20260902212005 | 25 | 171 | 9.7 | 25.7 | 0.00 | 0.00 | 0.00 | 64 | 1021.0 |
| 20260902211005 | 25 | 142 | 16.1 | 25.7 | 0.00 | 0.00 | 0.00 | 63 | 1020.9 |
| 20260902210004 | 24 | 153 | 12.9 | 27.4 | 0.00 | 0.00 | 0.00 | 65 | 1021.1 |
| 20260902204005 | 24 | 180 | 8.0 | 29.0 | 0.00 | 0.00 | 0.00 | 69 | 1021.3 |
| 20260902203004 | 24 | 173 | 12.9 | 32.2 | 0.00 | 0.00 | 0.00 | 66 | 1021.2 |
| 20260902202004 | 24 | 163 | 12.9 | 20.9 | 0.00 | 0.00 | 0.00 | 64 | 1021.4 |
| 20260902201005 | 24 | 232 | 6.4 | 24.1 | 0.00 | 0.00 | 0.00 | 64 | 1021.6 |
| 20260902200004 | 25 | 170 | 4.8 | 22.5 | 0.00 | 0.00 | 0.00 | 62 | 1021.6 |
| 20260902195008 | 24 | 162 | 17.7 | 22.5 | 0.00 | 0.00 | 0.00 | 62 | 1021.7 |
| 20260902194005 | 24 | 175 | 1.6 | 22.5 | 0.00 | 0.00 | 0.00 | 61 | 1022.0 |
| 20260902193005 | 25 | 129 | 3.2 | 19.3 | 0.00 | 0.00 | 0.00 | 61 | 1022.1 |
| 20260902192005 | 24 | 164 | 9.7 | 16.1 | 0.00 | 0.00 | 0.00 | 61 | 1022.3 |
| 20260902191002 | 25 | 168 | 6.4 | 16.1 | 0.00 | 0.00 | 0.00 | 59 | 1022.2 |
| 20260902190002 | 25 | 145 | 6.4 | 19.3 | 0.00 | 0.00 | 0.00 | 59 | 1022.2 |
| 20260902185003 | 23 | 256 | 3.2 | 19.3 | 0.00 | 0.00 | 0.00 | 61 | 1022.4 |
| 20260902184002 | 23 | 219 | 3.2 | 19.3 | 0.00 | 0.00 | 0.00 | 61 | 1022.6 |
| 20260902183005 | 23 | 189 | 8.0 | 19.3 | 0.00 | 0.00 | 0.00 | 62 | 1022.7 |
| 20260902182003 | 23 | 148 | 9.7 | 19.3 | 0.00 | 0.00 | 0.00 | 64 | 1022.9 |
| 20260902181002 | 23 | 183 | 9.7 | 16.1 | 0.00 | 0.00 | 0.00 | 63 | 1022.9 |
| 20260902180005 | 23 | 140 | 8.0 | 19.3 | 0.00 | 0.00 | 0.00 | 62 | 1023.0 |
| 20260902175003 | 24 | 170 | 9.7 | 14.5 | 0.00 | 0.00 | 0.00 | 62 | 1023.0 |
| 20260902173003 | 24 | 184 | 3.2 | 8.0 | 0.00 | 0.00 | 0.00 | 64 | 1023.4 |
| 20260902172002 | 23 | 217 | 3.2 | 12.9 | 0.00 | 0.00 | 0.00 | 63 | 1023.3 |
| 20260902170002 | 23 | 173 | 3.2 | 8.0 | 0.00 | 0.00 | 0.00 | 65 | 1023.1 |
| 20260902165003 | 23 | 176 | 3.2 | 8.0 | 0.00 | 0.00 | 0.00 | 64 | 1023.2 |